カタログに戻る

INTELSAT 33E DEB

運用中GEO
NORAD 64410·DEBRIS· XX

打ち上げ Aug 24, 2016 から Guiana Space Centre

Loading…

TLE

最新Source: Space-Track

元期: Sep 13, 2026, 22:48 UTC

1 64410U 16053AQ  26256.95010053 -.00000241  00000-0  00000-0 0  9992
2 64410   1.6713  71.2751 0065235  11.6781 349.2840  0.99988327  6778

AllMySatでINTELSAT 33E DEBをリアルタイム追跡

Download on the App Store